Regional Weather Roundup
Issued by NWS Glasgow, MT

Home | Current Version | Previous Version | Text Only | Print | Product List | Glossary On
Versions: 1 2 3 4 5 6 7 8 9 10 11 12 13 14 15 16 17 18 19 20 21 22 23 24 25 26 27 28 29 30 31 32 33 34 35 36 37 38 39 40 41 42 43 44 45 46 47 48 49 50
000
ASUS45 KGGW 251515
RWRGGW
HOURLY WEATHER ROUNDUP FOR NORTHEAST MONTANA
NATIONAL WEATHER SERVICE GLASGOW MONTANA
900 AM MDT SAT APR 25 2015

NOTE: "FAIR" INDICATES FEW OR NO CLOUDS BELOW 12,000 FEET WITH NO
SIGNIFICANT WEATHER AND/OR OBSTRUCTIONS TO VISISBILITY.

NORTHEAST MONTANA


CITY           SKY/WX    TMP DP  RH WIND       PRES   REMARKS
GLASGOW        PTSUNNY   48  39  71 NW23G31   29.66R
PLENTYWOOD       N/A    N/A N/A N/A N12         N/A
WOLF POINT     PTSUNNY   57  42  57 SE9       29.65S
JORDAN           N/A     45  40  82 NW14      29.69R
WINNETT          N/A     41  36  82 NW13G24     N/A
SIDNEY         PTSUNNY   52  41  66 E10       29.71R
GLENDIVE       PTSUNNY   54  43  66 E13       29.66F
MALTA            N/A     44  40  85 NW7         N/A
SCOBEY           N/A     53  39  59 E18G29    29.66F
OPHEIM           N/A     41  39  93 N6        29.52S

FORT PECK REPORTS


CITY           SKY/WX    TMP DP  RH WIND       PRES   REMARKS
FORT PECK        N/A     48  40  73 W21         N/A
THE PINES        N/A     47  38  71 NW12G21     N/A

SOUTHEAST MONTANA


CITY           SKY/WX    TMP DP  RH WIND       PRES   REMARKS
BILLINGS       LGT RAIN  40  37  89 W7        29.77R
MILES CITY     PTSUNNY   50  40  68 CALM      29.64R
BAKER          CLOUDY    45  42  89 SE17      29.69R
LIVINGSTON     CLOUDY    39 N/A N/A W17       29.77S

CENTRAL MONTANA


CITY           SKY/WX    TMP DP  RH WIND       PRES   REMARKS
HAVRE          CLOUDY    45  35  68 NW14      29.76R
LEWISTOWN      CLOUDY    37  34  89 SW12      29.78S
GREAT FALLS    CLOUDY    40  35  83 SW13      29.79R
CUT BANK       PTSUNNY   40  31  70 N17       29.79R
HELENA         CLOUDY    45  25  45 W6        29.79S
BUTTE          CLOUDY    35  24  64 NW7       29.81R
BOZEMAN        CLOUDY    35  33  92 W5        29.82S

WESTERN MONTANA


CITY           SKY/WX    TMP DP  RH WIND       PRES   REMARKS
MISSOULA       MOSUNNY   37  27  67 CALM      29.85S
KALISPELL      NOT AVBL

NORTH DAKOTA


CITY           SKY/WX    TMP DP  RH WIND       PRES   REMARKS
WILLISTON      CLOUDY    49  41  74 SE16      29.73S
DICKINSON      FOG       42  41  96 E14       29.71S VSB 1/4
MINOT          CLOUDY    44  40  85 SE15      29.81R
BISMARCK       CLOUDY    45  41  86 E13       29.80R

SOUTHERN SASKATCHEWAN


CITY           SKY/WX    TMP DP  RH WIND       PRES   REMARKS
REGINA         CLOUDY    45  43  93 E17       29.75S FOG
ESTEVAN        CLOUDY    43  39  87 E20G26    29.78S FOG
SWIFT CURRENT  LGT RAIN  34  34 100 NE9       29.74R FOG



USA.gov is the U.S. government's official web portal to all federal, state and local government web resources and services.